When you browse on this site, cookies collect data to enhance your experience and personalize the content and advertising you see.
Visit our Privacy Policy to learn more. By continuing to use the site, you agree to this use of cookies and data.
  • In Deutschland
  • Länderverzeichnis
  • Für 7 Tage
  • Wassertemperatur
  • Satellitenkarten
  • Wetterkarte
  • Widgets
  • user-avatar
    Anmelden

    Stündliche Wetter Piúma

    Heute, 18 November, Sonntag

    Zeit Temperatur Niederschläge Wind Luftdruck Luftfeuchtigkeit
    00:00 +23°C° 0 mm 4 m/S 761 mmHg 94%
    01:00 +23°C° 0 mm 4 m/S 760 mmHg 94%
    02:00 +23°C° 0 mm 4 m/S 760 mmHg 93%
    03:00 +23°C° 0 mm 4 m/S 760 mmHg 92%
    04:00 +23°C° 0 mm 4 m/S 760 mmHg 91%
    05:00 +25°C° 0 mm 3 m/S 760 mmHg 90%
    06:00 +25°C° 0 mm 3 m/S 761 mmHg 89%
    07:00 +27°C° 0 mm 4 m/S 761 mmHg 81%
    08:00 +28°C° 0 mm 4 m/S 761 mmHg 74%
    09:00 +30°C° 0 mm 4 m/S 761 mmHg 66%
    10:00 +32°C° 0.1 mm 4 m/S 761 mmHg 65%
    11:00 +33°C° 0.1 mm 5 m/S 760 mmHg 64%
    12:00 +33°C° 0.1 mm 6 m/S 760 mmHg 63%
    13:00 +33°C° 0.3 mm 6 m/S 759 mmHg 66%
    14:00 +33°C° 0.3 mm 6 m/S 759 mmHg 69%
    15:00 +32°C° 0.3 mm 6 m/S 758 mmHg 72%
    16:00 +30°C° 0.2 mm 6 m/S 758 mmHg 76%
    17:00 +29°C° 0.2 mm 6 m/S 758 mmHg 80%
    18:00 +27°C° 0.2 mm 6 m/S 758 mmHg 83%
    19:00 +27°C° 0 mm 6 m/S 758 mmHg 85%
    20:00 +26°C° 0 mm 6 m/S 759 mmHg 86%
    21:00 +26°C° 0 mm 5 m/S 759 mmHg 88%
    22:00 +26°C° 0 mm 5 m/S 759 mmHg 88%
    23:00 +25°C° 0 mm 5 m/S 759 mmHg 88%

    Morgen, 19 November, Montag

    Zeit Temperatur Niederschläge Wind Luftdruck Luftfeuchtigkeit
    00:00 +25°C° 0 mm 5 m/S 759 mmHg 89%
    01:00 +25°C° 0 mm 5 m/S 759 mmHg 88%
    02:00 +25°C° 0 mm 5 m/S 758 mmHg 87%
    03:00 +25°C° 0 mm 4 m/S 758 mmHg 87%
    04:00 +25°C° 0 mm 4 m/S 758 mmHg 86%
    05:00 +25°C° 0 mm 4 m/S 758 mmHg 85%
    06:00 +25°C° 0 mm 4 m/S 758 mmHg 84%
    07:00 +27°C° 0 mm 4 m/S 758 mmHg 75%
    08:00 +29°C° 0 mm 4 m/S 759 mmHg 66%
    09:00 +33°C° 0 mm 4 m/S 759 mmHg 57%
    10:00 +34°C° 0 mm 4 m/S 759 mmHg 53%
    11:00 +35°C° 0 mm 5 m/S 758 mmHg 49%
    12:00 +36°C° 0 mm 5 m/S 758 mmHg 44%
    13:00 +36°C° 0 mm 6 m/S 757 mmHg 46%
    14:00 +35°C° 0 mm 6 m/S 757 mmHg 48%
    15:00 +35°C° 0 mm 6 m/S 756 mmHg 50%
    16:00 +33°C° 0 mm 6 m/S 756 mmHg 58%
    17:00 +30°C° 0 mm 6 m/S 757 mmHg 66%
    18:00 +29°C° 0 mm 6 m/S 757 mmHg 74%
    19:00 +28°C° 0 mm 5 m/S 757 mmHg 76%
    20:00 +28°C° 0 mm 5 m/S 758 mmHg 78%
    21:00 +27°C° 0 mm 5 m/S 759 mmHg 80%
    22:00 +27°C° 0 mm 5 m/S 759 mmHg 81%
    23:00 +26°C° 0 mm 4 m/S 759 mmHg 83%

    übermorgen, 20 November, Dienstag

    Zeit Temperatur Niederschläge Wind Luftdruck Luftfeuchtigkeit
    00:00 +26°C° 0 mm 4 m/S 759 mmHg 85%
    01:00 +25°C° 0 mm 4 m/S 759 mmHg 86%
    02:00 +25°C° 0 mm 4 m/S 758 mmHg 86%
    03:00 +25°C° 0 mm 4 m/S 758 mmHg 87%
    04:00 +25°C° 0 mm 3 m/S 759 mmHg 86%
    05:00 +25°C° 0 mm 3 m/S 759 mmHg 85%
    06:00 +26°C° 0 mm 2 m/S 759 mmHg 84%
    07:00 +27°C° 0 mm 2 m/S 760 mmHg 80%
    08:00 +28°C° 0 mm 2 m/S 760 mmHg 76%
    09:00 +29°C° 0 mm 2 m/S 761 mmHg 72%
    10:00 +30°C° 0.1 mm 2 m/S 761 mmHg 70%
    11:00 +30°C° 0.1 mm 2 m/S 760 mmHg 68%
    12:00 +31°C° 0.1 mm 3 m/S 760 mmHg 66%
    13:00 +30°C° 0.2 mm 3 m/S 760 mmHg 70%
    14:00 +30°C° 0.2 mm 3 m/S 759 mmHg 75%
    15:00 +29°C° 0.2 mm 4 m/S 759 mmHg 79%
    16:00 +28°C° 0.9 mm 3 m/S 759 mmHg 84%
    17:00 +27°C° 0.9 mm 3 m/S 760 mmHg 89%
    18:00 +26°C° 0.9 mm 2 m/S 760 mmHg 94%
    19:00 +26°C° 0.4 mm 2 m/S 760 mmHg 94%
    20:00 +25°C° 0.4 mm 2 m/S 761 mmHg 95%
    21:00 +25°C° 0.4 mm 2 m/S 761 mmHg 95%
    22:00 +25°C° 0.1 mm 1 m/S 761 mmHg 95%
    23:00 +25°C° 0.1 mm 1 m/S 761 mmHg 96%

    21 November, Mittwoch

    Zeit Temperatur Niederschläge Wind Luftdruck Luftfeuchtigkeit
    00:00 +25°C° 0.1 mm 1 m/S 761 mmHg 96%
    01:00 +24°C° 0 mm 1 m/S 761 mmHg 96%
    02:00 +24°C° 0 mm 1 m/S 760 mmHg 96%
    03:00 +24°C° 0 mm 1 m/S 760 mmHg 96%
    04:00 +24°C° 0.2 mm 1 m/S 760 mmHg 95%
    05:00 +25°C° 0.2 mm 1 m/S 761 mmHg 95%
    06:00 +25°C° 0.2 mm 1 m/S 761 mmHg 94%
    07:00 +26°C° 0.1 mm 1 m/S 761 mmHg 90%
    08:00 +27°C° 0.1 mm 1 m/S 762 mmHg 87%
    09:00 +28°C° 0.1 mm 1 m/S 762 mmHg 83%
    10:00 +29°C° 0.3 mm 2 m/S 762 mmHg 79%
    11:00 +30°C° 0.3 mm 2 m/S 761 mmHg 76%
    12:00 +31°C° 0.3 mm 3 m/S 761 mmHg 73%
    13:00 +30°C° 0.4 mm 3 m/S 760 mmHg 76%
    14:00 +29°C° 0.4 mm 4 m/S 760 mmHg 78%
    15:00 +29°C° 0.4 mm 4 m/S 759 mmHg 81%
    16:00 +28°C° 0.6 mm 4 m/S 760 mmHg 85%
    17:00 +27°C° 0.6 mm 3 m/S 760 mmHg 90%
    18:00 +26°C° 0.6 mm 3 m/S 760 mmHg 94%
    19:00 +26°C° 0.8 mm 3 m/S 761 mmHg 95%
    20:00 +25°C° 0.8 mm 2 m/S 761 mmHg 95%
    21:00 +25°C° 0.8 mm 2 m/S 761 mmHg 95%
    22:00 +25°C° 0.9 mm 3 m/S 761 mmHg 95%
    23:00 +25°C° 0.9 mm 3 m/S 761 mmHg 95%

    22 November, Donnerstag

    Zeit Temperatur Niederschläge Wind Luftdruck Luftfeuchtigkeit
    00:00 +25°C° 0.9 mm 3 m/S 760 mmHg 96%
    01:00 +25°C° 1 mm 3 m/S 760 mmHg 95%
    02:00 +24°C° 1 mm 3 m/S 760 mmHg 95%
    03:00 +24°C° 1 mm 3 m/S 759 mmHg 95%
    04:00 +24°C° 0.8 mm 3 m/S 760 mmHg 95%
    05:00 +25°C° 0.8 mm 3 m/S 760 mmHg 95%
    06:00 +25°C° 0.8 mm 3 m/S 761 mmHg 94%
    07:00 +26°C° 1 mm 4 m/S 761 mmHg 90%
    08:00 +27°C° 1 mm 4 m/S 761 mmHg 86%
    09:00 +28°C° 1 mm 5 m/S 761 mmHg 82%
    10:00 +28°C° 0.8 mm 5 m/S 761 mmHg 80%
    11:00 +29°C° 0.8 mm 5 m/S 760 mmHg 77%
    12:00 +30°C° 0.8 mm 5 m/S 760 mmHg 74%
    13:00 +29°C° 1 mm 4 m/S 760 mmHg 79%
    14:00 +28°C° 1 mm 4 m/S 760 mmHg 84%
    15:00 +27°C° 1 mm 4 m/S 760 mmHg 89%
    16:00 +26°C° 0.6 mm 4 m/S 760 mmHg 91%
    17:00 +26°C° 0.6 mm 4 m/S 760 mmHg 92%
    18:00 +25°C° 0.6 mm 4 m/S 760 mmHg 94%
    19:00 +25°C° 0.6 mm 4 m/S 761 mmHg 94%
    20:00 +25°C° 0.6 mm 4 m/S 761 mmHg 95%
    21:00 +25°C° 0.6 mm 4 m/S 761 mmHg 95%
    22:00 +23°C° 0.4 mm 4 m/S 761 mmHg 95%
    23:00 +23°C° 0.4 mm 4 m/S 760 mmHg 95%

    23 November, Freitag

    Zeit Temperatur Niederschläge Wind Luftdruck Luftfeuchtigkeit
    00:00 +23°C° 0.4 mm 4 m/S 760 mmHg 95%
    01:00 +23°C° 0.4 mm 4 m/S 760 mmHg 95%
    02:00 +23°C° 0.4 mm 4 m/S 759 mmHg 94%
    03:00 +24°C° 0.4 mm 3 m/S 759 mmHg 94%
    04:00 +24°C° 0.4 mm 3 m/S 759 mmHg 94%
    05:00 +24°C° 0.4 mm 3 m/S 760 mmHg 94%
    06:00 +24°C° 0.4 mm 3 m/S 760 mmHg 93%
    07:00 +25°C° 0.2 mm 3 m/S 760 mmHg 89%
    08:00 +26°C° 0.2 mm 3 m/S 761 mmHg 84%
    09:00 +28°C° 0.2 mm 3 m/S 761 mmHg 80%
    10:00 +28°C° 0.3 mm 3 m/S 760 mmHg 78%
    11:00 +29°C° 0.3 mm 4 m/S 760 mmHg 76%
    12:00 +29°C° 0.3 mm 4 m/S 760 mmHg 74%
    13:00 +29°C° 0.4 mm 4 m/S 759 mmHg 76%
    14:00 +28°C° 0.4 mm 4 m/S 759 mmHg 78%
    15:00 +28°C° 0.4 mm 4 m/S 759 mmHg 80%
    16:00 +27°C° 0.6 mm 4 m/S 759 mmHg 84%
    17:00 +26°C° 0.6 mm 4 m/S 759 mmHg 88%
    18:00 +25°C° 0.6 mm 4 m/S 760 mmHg 93%
    19:00 +25°C° 0.2 mm 4 m/S 760 mmHg 93%
    20:00 +25°C° 0.2 mm 5 m/S 760 mmHg 93%
    21:00 +25°C° 0.2 mm 5 m/S 761 mmHg 93%
    22:00 +23°C° 0 mm 5 m/S 760 mmHg 93%
    23:00 +23°C° 0 mm 5 m/S 760 mmHg 93%
    Mehr zeigen